HFY003 SBPA-SAAR

Flight info

Callsign HFY003
Flight time 1h 42m
Altitude 32000
Route ISOBU UM534 ANRAL DCT TINTA
Aircraft A320/M-SDE3FGHIRWY/LB1

Departure

Time 2026-05-05 14:40
Airport Porto Alegre-Salgado Filho International Airport (SBPA)

Arrival

Time 2026-05-05 16:23
Airport Rosario Islas Malvinas International Airport (SAAR)
Time Latitude Longitude Altitude Speed Heading
2026-05-05 14:31 -29.99168 -51.17680 24 ft 0 kts 94°
2026-05-05 14:33 -29.99171 -51.17634 20 ft 13 kts 94°
2026-05-05 14:33 -29.99173 -51.17604 20 ft 2 kts 94°
2026-05-05 14:34 -29.99177 -51.17546 20 ft 15 kts 94°
2026-05-05 14:34 -29.99184 -51.17446 20 ft 9 kts 94°
2026-05-05 14:34 -29.99213 -51.17406 20 ft 6 kts 153°
2026-05-05 14:34 -29.99247 -51.17384 20 ft 5 kts 140°
2026-05-05 14:35 -29.99262 -51.17350 20 ft 8 kts 104°
2026-05-05 14:35 -29.99268 -51.17238 20 ft 18 kts 88°
2026-05-05 14:35 -29.99268 -51.17093 20 ft 18 kts 90°
2026-05-05 14:35 -29.99274 -51.16942 21 ft 19 kts 95°
2026-05-05 14:36 -29.99274 -51.16784 21 ft 20 kts 91°
2026-05-05 14:36 -29.99277 -51.16616 21 ft 22 kts 91°
2026-05-05 14:36 -29.99281 -51.16441 22 ft 23 kts 91°
2026-05-05 14:36 -29.99285 -51.16290 22 ft 16 kts 92°
2026-05-05 14:37 -29.99355 -51.16230 23 ft 13 kts 178°
2026-05-05 14:37 -29.99422 -51.16229 24 ft 0 kts 180°
2026-05-05 14:37 -29.99424 -51.16229 24 ft 2 kts 180°
2026-05-05 14:37 -29.99472 -51.16160 25 ft 24 kts 88°
2026-05-05 14:38 -29.99479 -51.15884 24 ft 42 kts 92°
2026-05-05 14:38 -29.99494 -51.15550 23 ft 42 kts 91°
2026-05-05 14:38 -29.99499 -51.15232 23 ft 30 kts 91°
2026-05-05 14:38 -29.99457 -51.15066 23 ft 18 kts 102°
2026-05-05 14:39 -29.99485 -51.15032 23 ft 4 kts 233°
2026-05-05 14:39 -29.99500 -51.15057 24 ft 3 kts 238°
2026-05-05 14:39 -29.99502 -51.15074 23 ft 2 kts 265°
2026-05-05 14:39 -29.99504 -51.15280 23 ft 67 kts 271°
2026-05-05 14:40 -29.99483 -51.16155 26 ft 147 kts 272°
2026-05-05 14:40 -29.99411 -51.17490 390 ft 178 kts 275°
2026-05-05 14:40 -29.99300 -51.18999 1008 ft 199 kts 277°
2026-05-05 14:40 -29.99191 -51.20652 1680 ft 211 kts 273°
2026-05-05 14:41 -29.99182 -51.22337 2546 ft 210 kts 271°
2026-05-05 14:41 -29.99197 -51.24008 3422 ft 208 kts 271°
2026-05-05 14:41 -29.99205 -51.25678 4195 ft 209 kts 270°
2026-05-05 14:41 -29.99603 -51.27296 4928 ft 219 kts 235°
2026-05-05 14:42 -30.00879 -51.28343 5432 ft 243 kts 199°
2026-05-05 14:42 -30.02642 -51.28662 5791 ft 270 kts 186°
2026-05-05 14:42 -30.04576 -51.28718 6076 ft 283 kts 182°
2026-05-05 14:42 -30.06545 -51.28676 6115 ft 283 kts 181°
2026-05-05 14:43 -30.08511 -51.28617 6116 ft 283 kts 181°
2026-05-05 14:43 -30.10479 -51.28579 6117 ft 283 kts 182°
2026-05-05 14:43 -30.12443 -51.28569 6118 ft 282 kts 183°
2026-05-05 14:43 -30.14406 -51.28583 6119 ft 282 kts 184°
2026-05-05 14:44 -30.16336 -51.28873 6120 ft 278 kts 199°
2026-05-05 14:44 -30.18098 -51.29762 6254 ft 279 kts 216°
2026-05-05 14:44 -30.19613 -51.31142 7115 ft 277 kts 223°
2026-05-05 14:44 -30.21096 -51.32576 8028 ft 278 kts 223°
2026-05-05 14:45 -30.22592 -51.34006 8922 ft 281 kts 223°
2026-05-05 14:45 -30.24109 -51.35455 9808 ft 284 kts 223°
2026-05-05 14:45 -30.25620 -51.36903 10525 ft 292 kts 223°
2026-05-05 14:45 -30.27268 -51.38492 10799 ft 316 kts 223°
2026-05-05 14:46 -30.29007 -51.40174 11144 ft 333 kts 223°
2026-05-05 14:46 -30.30785 -51.41892 11757 ft 340 kts 223°
2026-05-05 14:46 -30.32609 -51.43650 12456 ft 343 kts 223°
2026-05-05 14:46 -30.34454 -51.45429 13154 ft 347 kts 223°
2026-05-05 14:47 -30.36319 -51.47229 13854 ft 350 kts 223°
2026-05-05 14:47 -30.38199 -51.49045 14470 ft 353 kts 223°
2026-05-05 14:47 -30.40093 -51.50879 15100 ft 356 kts 223°
2026-05-05 14:47 -30.42000 -51.52725 15731 ft 359 kts 223°
2026-05-05 14:48 -30.43922 -51.54585 16374 ft 361 kts 223°
2026-05-05 14:48 -30.45859 -51.56459 16995 ft 363 kts 223°
2026-05-05 14:48 -30.47802 -51.58344 17609 ft 366 kts 223°
2026-05-05 14:48 -30.49731 -51.60285 18215 ft 367 kts 227°
2026-05-05 14:49 -30.51373 -51.62555 18785 ft 367 kts 237°
2026-05-05 14:49 -30.52830 -51.64997 19339 ft 369 kts 237°
2026-05-05 14:49 -30.54299 -51.67446 19900 ft 371 kts 238°
2026-05-05 14:49 -30.55775 -51.69902 20471 ft 372 kts 237°
2026-05-05 14:50 -30.57265 -51.72378 21050 ft 374 kts 238°
2026-05-05 14:50 -30.58757 -51.74858 21599 ft 376 kts 238°
2026-05-05 14:50 -30.60258 -51.77356 22158 ft 378 kts 238°
2026-05-05 14:50 -30.61765 -51.79869 22695 ft 380 kts 238°
2026-05-05 14:51 -30.63276 -51.82398 23216 ft 382 kts 238°
2026-05-05 14:51 -30.64788 -51.84944 23689 ft 384 kts 240°
2026-05-05 14:51 -30.66035 -51.87682 24067 ft 384 kts 250°
2026-05-05 14:51 -30.66819 -51.90640 24468 ft 384 kts 259°
2026-05-05 14:52 -30.67119 -51.93733 24853 ft 386 kts 268°
2026-05-05 14:52 -30.67210 -51.96844 25276 ft 386 kts 268°
2026-05-05 14:52 -30.67302 -51.99970 25658 ft 388 kts 268°
2026-05-05 14:52 -30.67393 -52.03111 26044 ft 389 kts 268°
2026-05-05 14:53 -30.67487 -52.06258 26415 ft 391 kts 267°
2026-05-05 14:53 -30.67582 -52.09418 26792 ft 392 kts 267°
2026-05-05 14:53 -30.67678 -52.12596 27155 ft 394 kts 267°
2026-05-05 14:53 -30.67776 -52.15785 27505 ft 396 kts 267°
2026-05-05 14:54 -30.67875 -52.18986 27849 ft 397 kts 267°
2026-05-05 14:54 -30.67972 -52.22205 28177 ft 399 kts 267°
2026-05-05 14:54 -30.68067 -52.25430 28522 ft 400 kts 268°
2026-05-05 14:54 -30.68161 -52.28669 28842 ft 402 kts 267°
2026-05-05 14:55 -30.68251 -52.31920 29148 ft 404 kts 267°
2026-05-05 14:55 -30.68341 -52.35184 29455 ft 405 kts 267°
2026-05-05 14:55 -30.68430 -52.38460 29743 ft 406 kts 267°
2026-05-05 14:55 -30.68518 -52.41750 30003 ft 408 kts 268°
2026-05-05 14:56 -30.68606 -52.45006 30242 ft 409 kts 267°
2026-05-05 14:56 -30.68698 -52.48317 30466 ft 411 kts 267°
2026-05-05 14:56 -30.68789 -52.51636 30689 ft 411 kts 267°
2026-05-05 14:56 -30.68879 -52.54950 31009 ft 410 kts 267°
2026-05-05 14:57 -30.68968 -52.58252 31334 ft 408 kts 267°
2026-05-05 14:57 -30.69056 -52.61536 31651 ft 407 kts 267°
2026-05-05 14:57 -30.69143 -52.64816 31970 ft 405 kts 267°
2026-05-05 14:57 -30.69230 -52.68089 32099 ft 404 kts 267°
2026-05-05 14:58 -30.69369 -52.73497 32125 ft 397 kts 267°
2026-05-05 14:58 -30.69520 -52.79906 32125 ft 396 kts 267°
2026-05-05 14:59 -30.69780 -52.86285 32125 ft 395 kts 265°
2026-05-05 14:59 -30.70222 -52.92616 32125 ft 395 kts 264°
2026-05-05 15:00 -30.70674 -52.98982 32123 ft 395 kts 264°
2026-05-05 15:00 -30.71083 -53.05343 32121 ft 395 kts 265°
2026-05-05 15:01 -30.71463 -53.11705 32119 ft 395 kts 265°
2026-05-05 15:01 -30.71840 -53.18071 32116 ft 395 kts 265°
2026-05-05 15:02 -30.72221 -53.24432 32112 ft 394 kts 265°
2026-05-05 15:02 -30.72602 -53.30792 32111 ft 394 kts 265°
2026-05-05 15:03 -30.73037 -53.37141 32111 ft 393 kts 260°
2026-05-05 15:03 -30.74682 -53.43185 32111 ft 393 kts 249°
2026-05-05 15:04 -30.76677 -53.49106 32103 ft 393 kts 250°
2026-05-05 15:04 -30.78652 -53.55040 32102 ft 393 kts 250°
2026-05-05 15:05 -30.81605 -53.63937 32102 ft 393 kts 250°
2026-05-05 15:06 -30.83571 -53.69873 32099 ft 393 kts 250°
2026-05-05 15:06 -30.85533 -53.75769 32102 ft 393 kts 250°
2026-05-05 15:07 -30.87501 -53.81695 32102 ft 392 kts 250°
2026-05-05 15:07 -30.89457 -53.87626 32099 ft 392 kts 250°
2026-05-05 15:08 -30.91404 -53.93549 32098 ft 392 kts 250°
2026-05-05 15:08 -30.93355 -53.99469 32093 ft 391 kts 250°
2026-05-05 15:09 -30.95302 -54.05385 32091 ft 391 kts 250°
2026-05-05 15:09 -30.97243 -54.11304 32092 ft 391 kts 250°
2026-05-05 15:10 -30.99181 -54.17215 32088 ft 390 kts 250°
2026-05-05 15:10 -31.01136 -54.23119 32087 ft 390 kts 250°
2026-05-05 15:11 -31.03092 -54.29014 32085 ft 390 kts 250°
2026-05-05 15:11 -31.05045 -54.34916 32083 ft 390 kts 250°
2026-05-05 15:12 -31.06984 -54.40816 32088 ft 389 kts 250°
2026-05-05 15:12 -31.08918 -54.46687 32074 ft 389 kts 250°
2026-05-05 15:13 -31.10855 -54.52583 32082 ft 389 kts 250°
2026-05-05 15:13 -31.12784 -54.58484 32076 ft 389 kts 250°
2026-05-05 15:14 -31.14709 -54.64384 32082 ft 389 kts 250°
2026-05-05 15:14 -31.16640 -54.70275 32078 ft 389 kts 250°
2026-05-05 15:15 -31.18561 -54.76172 32078 ft 388 kts 251°
2026-05-05 15:15 -31.20476 -54.82069 32080 ft 388 kts 251°
2026-05-05 15:16 -31.22393 -54.87962 32074 ft 388 kts 251°
2026-05-05 15:16 -31.24290 -54.93832 32075 ft 388 kts 251°
2026-05-05 15:17 -31.26188 -54.99728 32069 ft 388 kts 251°
2026-05-05 15:17 -31.28090 -55.05627 32071 ft 388 kts 251°
2026-05-05 15:18 -31.29995 -55.11526 32077 ft 387 kts 251°
2026-05-05 15:18 -31.31870 -55.17428 32070 ft 387 kts 251°
2026-05-05 15:19 -31.33697 -55.23355 32067 ft 387 kts 252°
2026-05-05 15:19 -31.35512 -55.29278 32072 ft 387 kts 252°
2026-05-05 15:20 -31.37343 -55.35203 32077 ft 387 kts 252°
2026-05-05 15:20 -31.39173 -55.41124 32075 ft 386 kts 252°
2026-05-05 15:21 -31.40990 -55.47037 32072 ft 386 kts 252°
2026-05-05 15:21 -31.42805 -55.52949 32068 ft 386 kts 252°
2026-05-05 15:22 -31.44613 -55.58869 32065 ft 386 kts 252°
2026-05-05 15:22 -31.46402 -55.64736 32060 ft 385 kts 252°
2026-05-05 15:23 -31.48210 -55.70655 32057 ft 385 kts 252°
2026-05-05 15:23 -31.50013 -55.76560 32056 ft 385 kts 252°
2026-05-05 15:24 -31.51809 -55.82470 32060 ft 385 kts 252°
2026-05-05 15:24 -31.53596 -55.88380 32054 ft 384 kts 252°
2026-05-05 15:25 -31.55384 -55.94280 32048 ft 384 kts 252°
2026-05-05 15:25 -31.57171 -56.00184 32042 ft 384 kts 252°
2026-05-05 15:26 -31.58956 -56.06089 32041 ft 384 kts 252°
2026-05-05 15:26 -31.60736 -56.12006 32039 ft 384 kts 252°
2026-05-05 15:27 -31.62516 -56.17921 32038 ft 384 kts 252°
2026-05-05 15:27 -31.64289 -56.23839 32037 ft 384 kts 252°
2026-05-05 15:28 -31.66053 -56.29755 32035 ft 384 kts 252°
2026-05-05 15:28 -31.67803 -56.35632 32040 ft 384 kts 253°
2026-05-05 15:29 -31.69571 -56.41546 32037 ft 384 kts 253°
2026-05-05 15:29 -31.71333 -56.47463 32030 ft 384 kts 253°
2026-05-05 15:30 -31.73094 -56.53392 32023 ft 384 kts 253°
2026-05-05 15:30 -31.74848 -56.59311 32031 ft 384 kts 253°
2026-05-05 15:31 -31.76603 -56.65238 32024 ft 384 kts 253°
2026-05-05 15:31 -31.78350 -56.71172 32025 ft 384 kts 253°
2026-05-05 15:32 -31.80096 -56.77105 32025 ft 384 kts 253°
2026-05-05 15:32 -31.81841 -56.83037 32023 ft 384 kts 253°
2026-05-05 15:33 -31.83588 -56.88968 32029 ft 384 kts 253°
2026-05-05 15:33 -31.85328 -56.94906 32026 ft 384 kts 253°
2026-05-05 15:34 -31.87073 -57.00837 32024 ft 384 kts 253°
2026-05-05 15:34 -31.88804 -57.06772 32022 ft 384 kts 253°
2026-05-05 15:35 -31.90532 -57.12709 32009 ft 384 kts 253°
2026-05-05 15:35 -31.92253 -57.18614 32015 ft 384 kts 253°
2026-05-05 15:36 -31.93983 -57.24554 32012 ft 384 kts 253°
2026-05-05 15:36 -31.95707 -57.30498 32007 ft 384 kts 253°
2026-05-05 15:37 -31.97424 -57.36446 32014 ft 384 kts 253°
2026-05-05 15:37 -31.99141 -57.42405 32022 ft 384 kts 254°
2026-05-05 15:38 -32.00860 -57.48363 32016 ft 384 kts 253°
2026-05-05 15:38 -32.02572 -57.54314 32013 ft 384 kts 254°
2026-05-05 15:39 -32.04282 -57.60288 32011 ft 384 kts 254°
2026-05-05 15:39 -32.05990 -57.66250 32018 ft 384 kts 254°
2026-05-05 15:40 -32.07696 -57.72218 32004 ft 384 kts 254°
2026-05-05 15:40 -32.09402 -57.78189 32012 ft 384 kts 254°
2026-05-05 15:41 -32.11101 -57.84158 32006 ft 384 kts 254°
2026-05-05 15:41 -32.12797 -57.90130 32007 ft 384 kts 254°
2026-05-05 15:42 -32.14206 -57.95092 32006 ft 384 kts 254°
2026-05-05 15:42 -32.16172 -58.02035 31672 ft 379 kts 254°
2026-05-05 15:42 -32.16993 -58.04924 31550 ft 365 kts 254°
2026-05-05 15:43 -32.17787 -58.07729 31301 ft 355 kts 255°
2026-05-05 15:43 -32.18556 -58.10457 31057 ft 346 kts 255°
2026-05-05 15:43 -32.19065 -58.12264 30895 ft 340 kts 255°
2026-05-05 15:43 -32.19802 -58.14879 30652 ft 332 kts 255°
2026-05-05 15:44 -32.20521 -58.17440 30413 ft 324 kts 255°
2026-05-05 15:44 -32.21209 -58.19906 30181 ft 317 kts 255°
2026-05-05 15:44 -32.21863 -58.22358 29946 ft 309 kts 256°
2026-05-05 15:44 -32.22485 -58.24760 29670 ft 302 kts 256°
2026-05-05 15:45 -32.23084 -58.27111 29391 ft 297 kts 256°
2026-05-05 15:45 -32.23679 -58.29437 29108 ft 295 kts 256°
2026-05-05 15:45 -32.24270 -58.31748 28835 ft 293 kts 256°
2026-05-05 15:45 -32.24859 -58.34050 28588 ft 292 kts 256°
2026-05-05 15:46 -32.25446 -58.36338 28317 ft 290 kts 256°
2026-05-05 15:46 -32.26031 -58.38618 28048 ft 290 kts 256°
2026-05-05 15:46 -32.26615 -58.40891 27791 ft 289 kts 256°
2026-05-05 15:46 -32.27199 -58.43156 27534 ft 287 kts 256°
2026-05-05 15:47 -32.27778 -58.45409 27279 ft 286 kts 256°
2026-05-05 15:47 -32.28359 -58.47658 27027 ft 286 kts 256°
2026-05-05 15:47 -32.28939 -58.49906 26776 ft 285 kts 256°
2026-05-05 15:47 -32.29513 -58.52141 26533 ft 284 kts 256°
2026-05-05 15:48 -32.30086 -58.54373 26281 ft 283 kts 256°
2026-05-05 15:48 -32.30657 -58.56595 26038 ft 282 kts 256°
2026-05-05 15:48 -32.31224 -58.58815 25796 ft 282 kts 256°
2026-05-05 15:48 -32.31788 -58.61023 25552 ft 280 kts 256°
2026-05-05 15:49 -32.32352 -58.63224 25319 ft 279 kts 256°
2026-05-05 15:49 -32.32913 -58.65416 25087 ft 279 kts 256°
2026-05-05 15:49 -32.33475 -58.67607 24851 ft 278 kts 256°
2026-05-05 15:49 -32.34074 -58.69778 24618 ft 277 kts 255°
2026-05-05 15:50 -32.34700 -58.71936 24387 ft 277 kts 254°
2026-05-05 15:50 -32.35334 -58.74083 24160 ft 277 kts 254°
2026-05-05 15:50 -32.35969 -58.76230 23932 ft 276 kts 254°
2026-05-05 15:50 -32.36600 -58.78371 23698 ft 275 kts 254°
2026-05-05 15:51 -32.37224 -58.80506 23466 ft 274 kts 255°
2026-05-05 15:51 -32.37839 -58.82635 23199 ft 273 kts 255°
2026-05-05 15:51 -32.38442 -58.84735 22936 ft 273 kts 255°
2026-05-05 15:51 -32.39058 -58.86881 22670 ft 271 kts 255°
2026-05-05 15:52 -32.39656 -58.88965 22415 ft 270 kts 255°
2026-05-05 15:52 -32.40259 -58.91066 22157 ft 269 kts 255°
2026-05-05 15:52 -32.40864 -58.93168 21900 ft 269 kts 255°
2026-05-05 15:52 -32.41466 -58.95256 21646 ft 267 kts 255°
2026-05-05 15:53 -32.42066 -58.97336 21394 ft 267 kts 255°
2026-05-05 15:53 -32.42662 -58.99412 21143 ft 266 kts 255°
2026-05-05 15:53 -32.43255 -59.01482 20895 ft 265 kts 255°
2026-05-05 15:53 -32.43845 -59.03544 20660 ft 264 kts 255°
2026-05-05 15:54 -32.44432 -59.05598 20417 ft 263 kts 255°
2026-05-05 15:54 -32.45017 -59.07647 20169 ft 262 kts 255°
2026-05-05 15:54 -32.45601 -59.09690 19940 ft 262 kts 255°
2026-05-05 15:54 -32.46184 -59.11729 19705 ft 261 kts 255°
2026-05-05 15:55 -32.46767 -59.13764 19463 ft 260 kts 255°
2026-05-05 15:55 -32.47348 -59.15792 19226 ft 260 kts 255°
2026-05-05 15:55 -32.47925 -59.17816 18999 ft 259 kts 255°
2026-05-05 15:55 -32.48501 -59.19841 18765 ft 259 kts 256°
2026-05-05 15:56 -32.49068 -59.21836 18536 ft 259 kts 256°
2026-05-05 15:56 -32.49643 -59.23853 18311 ft 259 kts 256°
2026-05-05 15:56 -32.50216 -59.25871 18053 ft 258 kts 256°
2026-05-05 15:56 -32.50787 -59.27886 17797 ft 258 kts 256°
2026-05-05 15:57 -32.51358 -59.29898 17535 ft 258 kts 256°
2026-05-05 15:57 -32.51928 -59.31910 17286 ft 257 kts 255°
2026-05-05 15:57 -32.52495 -59.33910 17031 ft 256 kts 255°
2026-05-05 15:57 -32.53077 -59.35903 16781 ft 256 kts 252°
2026-05-05 15:58 -32.53820 -59.37828 16532 ft 258 kts 246°
2026-05-05 15:58 -32.54730 -59.39671 16284 ft 259 kts 244°
2026-05-05 15:58 -32.55650 -59.41502 16040 ft 258 kts 244°
2026-05-05 15:58 -32.56566 -59.43334 15795 ft 258 kts 244°
2026-05-05 15:59 -32.57478 -59.45161 15558 ft 258 kts 244°
2026-05-05 15:59 -32.58389 -59.46990 15314 ft 257 kts 244°
2026-05-05 15:59 -32.59301 -59.48819 15074 ft 257 kts 244°
2026-05-05 15:59 -32.60211 -59.50644 14839 ft 257 kts 244°
2026-05-05 16:00 -32.61118 -59.52470 14614 ft 257 kts 244°
2026-05-05 16:00 -32.62024 -59.54296 14371 ft 257 kts 244°
2026-05-05 16:00 -32.62930 -59.56117 14141 ft 256 kts 244°
2026-05-05 16:00 -32.63837 -59.57937 13912 ft 256 kts 244°
2026-05-05 16:01 -32.64743 -59.59757 13674 ft 256 kts 244°
2026-05-05 16:01 -32.65648 -59.61577 13417 ft 255 kts 244°
2026-05-05 16:01 -32.66547 -59.63387 13162 ft 254 kts 244°
2026-05-05 16:01 -32.67441 -59.65191 12908 ft 253 kts 244°
2026-05-05 16:02 -32.68334 -59.66992 12649 ft 253 kts 244°
2026-05-05 16:02 -32.69213 -59.68764 12414 ft 252 kts 245°
2026-05-05 16:02 -32.70102 -59.70557 12167 ft 252 kts 245°
2026-05-05 16:02 -32.70991 -59.72351 11919 ft 251 kts 245°
2026-05-05 16:03 -32.71876 -59.74138 11669 ft 251 kts 245°
2026-05-05 16:03 -32.72758 -59.75924 11437 ft 251 kts 245°
2026-05-05 16:03 -32.73638 -59.77709 11196 ft 250 kts 245°
2026-05-05 16:03 -32.74519 -59.79490 10959 ft 250 kts 245°
2026-05-05 16:04 -32.75398 -59.81265 10724 ft 249 kts 246°
2026-05-05 16:04 -32.76278 -59.83040 10487 ft 249 kts 246°
2026-05-05 16:04 -32.77156 -59.84812 10254 ft 249 kts 246°
2026-05-05 16:04 -32.78029 -59.86583 10022 ft 248 kts 246°
2026-05-05 16:05 -32.78900 -59.88350 9852 ft 247 kts 246°
2026-05-05 16:05 -32.79772 -59.90113 9737 ft 247 kts 247°
2026-05-05 16:05 -32.80639 -59.91865 9609 ft 246 kts 247°
2026-05-05 16:05 -32.81505 -59.93617 9479 ft 245 kts 247°
2026-05-05 16:06 -32.82365 -59.95362 9348 ft 244 kts 247°
2026-05-05 16:06 -32.83218 -59.97106 9225 ft 244 kts 247°
2026-05-05 16:06 -32.84071 -59.98847 9099 ft 243 kts 247°
2026-05-05 16:06 -32.84922 -60.00582 8970 ft 243 kts 247°
2026-05-05 16:07 -32.85771 -60.02312 8839 ft 242 kts 247°
2026-05-05 16:07 -32.86617 -60.04038 8719 ft 241 kts 247°
2026-05-05 16:07 -32.87462 -60.05761 8583 ft 241 kts 247°
2026-05-05 16:07 -32.88306 -60.07482 8467 ft 240 kts 247°
2026-05-05 16:08 -32.89148 -60.09197 8343 ft 240 kts 247°
2026-05-05 16:08 -32.89977 -60.10891 8221 ft 239 kts 247°
2026-05-05 16:08 -32.90813 -60.12601 8107 ft 239 kts 247°
2026-05-05 16:08 -32.91652 -60.14311 7977 ft 239 kts 247°
2026-05-05 16:09 -32.92490 -60.16014 7855 ft 238 kts 247°
2026-05-05 16:09 -32.93302 -60.17715 7749 ft 235 kts 251°
2026-05-05 16:09 -32.93917 -60.19484 7624 ft 228 kts 260°
2026-05-05 16:09 -32.94317 -60.21292 7500 ft 225 kts 264°
2026-05-05 16:10 -32.94678 -60.23105 7380 ft 225 kts 264°
2026-05-05 16:10 -32.95042 -60.24918 7259 ft 225 kts 264°
2026-05-05 16:10 -32.95407 -60.26724 7141 ft 224 kts 264°
2026-05-05 16:10 -32.95773 -60.28528 7022 ft 224 kts 264°
2026-05-05 16:11 -32.96136 -60.30329 6901 ft 224 kts 264°
2026-05-05 16:11 -32.97216 -60.35710 6545 ft 222 kts 264°
2026-05-05 16:12 -32.97575 -60.37499 6429 ft 222 kts 264°
2026-05-05 16:12 -32.98293 -60.41075 6180 ft 222 kts 264°
2026-05-05 16:13 -32.99510 -60.46394 5806 ft 229 kts 243°
2026-05-05 16:13 -33.00706 -60.47693 5690 ft 242 kts 211°
2026-05-05 16:13 -33.02308 -60.48388 5567 ft 247 kts 202°
2026-05-05 16:14 -33.05609 -60.49468 5327 ft 247 kts 200°
2026-05-05 16:14 -33.08670 -60.51022 5080 ft 231 kts 232°
2026-05-05 16:15 -33.09818 -60.54288 4835 ft 211 kts 276°
2026-05-05 16:15 -33.09417 -60.57783 4094 ft 217 kts 282°
2026-05-05 16:16 -33.08971 -60.61440 3213 ft 229 kts 281°
2026-05-05 16:16 -33.08506 -60.65251 2322 ft 236 kts 280°
2026-05-05 16:17 -33.08050 -60.69036 1981 ft 217 kts 280°
2026-05-05 16:17 -33.07843 -60.70760 1981 ft 207 kts 281°
2026-05-05 16:18 -33.07426 -60.74142 1982 ft 207 kts 281°
2026-05-05 16:18 -33.07217 -60.75818 1993 ft 207 kts 281°
2026-05-05 16:18 -33.06796 -60.79210 1983 ft 203 kts 282°
2026-05-05 16:19 -33.06385 -60.80711 1942 ft 186 kts 310°
2026-05-05 16:19 -33.05416 -60.81541 2026 ft 169 kts 343°
2026-05-05 16:19 -33.03223 -60.81342 1991 ft 150 kts
2026-05-05 16:20 -33.01254 -60.80906 1985 ft 141 kts
2026-05-05 16:20 -32.99311 -60.80479 1615 ft 141 kts
2026-05-05 16:21 -32.97411 -60.80059 1240 ft 138 kts 11°
2026-05-05 16:22 -32.94579 -60.79453 681 ft 143 kts
2026-05-05 16:22 -32.92426 -60.78935 326 ft 158 kts
2026-05-05 16:23 -32.90548 -60.78509 96 ft 98 kts 10°
2026-05-05 16:23 -32.90171 -60.78427 96 ft 22 kts 11°
2026-05-05 16:23 -32.89996 -60.78382 96 ft 2 kts 303°
2026-05-05 16:24 -32.90002 -60.78390 97 ft 0 kts 227°
2026-05-05 16:24 -32.90010 -60.78391 95 ft 3 kts 192°
2026-05-05 16:24 -32.90254 -60.78439 95 ft 28 kts 190°
2026-05-05 16:25 -32.90454 -60.78483 96 ft 30 kts 191°
2026-05-05 16:25 -32.90706 -60.78543 100 ft 0 kts 192°
2026-05-05 16:28 -32.90760 -60.78556 98 ft 17 kts 191°
2026-05-05 16:28 -32.90875 -60.78562 99 ft 16 kts 170°
2026-05-05 16:28 -32.90984 -60.78527 98 ft 17 kts 163°
2026-05-05 16:29 -32.91100 -60.78463 96 ft 20 kts 151°
2026-05-05 16:29 -32.91215 -60.78357 96 ft 22 kts 140°
2026-05-05 16:29 -32.91327 -60.78245 96 ft 21 kts 140°
2026-05-05 16:29 -32.91399 -60.78177 98 ft 8 kts 144°
2026-05-05 16:30 -32.91447 -60.78171 98 ft 6 kts 189°
2026-05-05 16:30 -32.91487 -60.78184 96 ft 5 kts 194°
2026-05-05 16:30 -32.91502 -60.78172 96 ft 3 kts 130°
2026-05-05 16:30 -32.91511 -60.78149 95 ft 3 kts 111°
2026-05-05 16:31 -32.91517 -60.78129 98 ft 1 kts 110°
2026-05-05 16:31 -32.91520 -60.78120 96 ft 3 kts 110°
2026-05-05 16:31 -32.91529 -60.78092 97 ft 1 kts 111°
2026-05-05 16:31 -32.91531 -60.78084 98 ft 0 kts 110°